Spokane, WA
on Sunday, February 17, 2013

Sunday
Previous Day Next Day
Daily Summary
 ActualAverageRecord
Temperature
Mean Temperature °F 33°F  
Max Temperature 43°F 40°F 58°F (1930)
Min Temperature 28°F 26°F -5°F (1881)
Degree Days
Heating Degree Days 29 32  
Month to date heating degree days 529 558  
Since 1 July heating degree days 4197 4491  
Cooling Degree Days 0 0  
Month to date cooling degree days 0 0  
Year to date cooling degree days 0 0  
Moisture
Dew Point 26°F   
Average Humidity 67    
Maximum Humidity 85    
Minimum Humidity 49    
Precipitation
Precipitation T in 0.05 in 0.71 in (1940)
Month to date precipitation 0.04 0.80  
Year to date precipitation 1.67 2.59  
Snow
Snow 0.10 in 0.30 in 7.60 in (1989)
Month to date snowfall 0.4 4.5  
Since 1 July snowfall 38.6 38.0  
Snow Depth 0.00 in   
Wind
Wind Speed 10 mph   
Max Wind Speed 20 mph   
Max Gust Speed 25 mph   
Visibility 10 miles   
Events Snow   

Key: T is trace of precipitation, MM is missing value
Source: NWS Daily Summary
Time(PST)TemperatureDew PointHumidity Pressure Visibility Wind DirectionWind SpeedGust SpeedPrecipitationEvents Conditions
12:53 AM 33.1°F 27.0°F 78% 29.98 in 10.0 miles SW 12.7 mph - N/A   Mostly Cloudy
1:53 AM 32.0°F 27.0°F 82% 29.99 in 10.0 miles SW 12.7 mph - N/A   Overcast
2:53 AM 33.1°F 26.1°F 75% 30.00 in 10.0 miles West 11.5 mph - N/A   Overcast
3:18 AM 33.8°F 28.4°F 81% 29.96 in 3.0 miles West 11.5 mph - 0.00 in Snow Light Snow
3:53 AM 33.1°F 30.0°F 89% 30.00 in 7.0 miles SSW 9.2 mph - 0.00 in Snow Light Snow
4:53 AM 30.2°F 26.6°F 86% 29.97 in 10.0 miles SW 12.7 mph - N/A   Mostly Cloudy
5:53 AM 30.9°F 26.1°F 82% 30.03 in 10.0 miles WSW 17.3 mph - N/A   Mostly Cloudy
6:53 AM 28.9°F 25.0°F 85% 30.04 in 10.0 miles SSW 10.4 mph - N/A   Partly Cloudy
7:53 AM 30.0°F 25.0°F 82% 30.06 in 10.0 miles SW 11.5 mph - N/A   Scattered Clouds
8:53 AM 34.0°F 26.1°F 73% 30.06 in 10.0 miles SW 6.9 mph - N/A   Scattered Clouds
9:53 AM 37.9°F 26.1°F 62% 30.07 in 10.0 miles WSW 11.5 mph - N/A   Scattered Clouds
10:53 AM 41.0°F 25.0°F 53% 30.08 in 10.0 miles West 15.0 mph - N/A   Scattered Clouds
11:53 AM 42.1°F 25.0°F 51% 30.08 in 10.0 miles West 16.1 mph 23.0 mph N/A   Scattered Clouds
12:53 PM 43.0°F 26.1°F 51% 30.07 in 10.0 miles West 12.7 mph - N/A   Mostly Cloudy
1:53 PM 42.1°F 26.1°F 53% 30.07 in 10.0 miles WSW 13.8 mph - N/A   Mostly Cloudy
2:53 PM 41.0°F 25.0°F 53% 30.07 in 10.0 miles West 12.7 mph - N/A   Mostly Cloudy
3:53 PM 41.0°F 26.1°F 55% 30.08 in 10.0 miles WSW 12.7 mph - N/A   Scattered Clouds
4:53 PM 39.0°F 25.0°F 57% 30.09 in 10.0 miles WSW 8.1 mph - N/A   Mostly Cloudy
5:53 PM 35.1°F 23.0°F 61% 30.10 in 10.0 miles SW 4.6 mph - N/A   Mostly Cloudy
6:53 PM 35.1°F 23.0°F 61% 30.10 in 10.0 miles WSW 5.8 mph - N/A   Overcast
7:53 PM 33.1°F 24.1°F 70% 30.11 in 10.0 miles WSW 8.1 mph - N/A   Overcast
9:53 PM 28.9°F 24.1°F 82% 30.12 in 10.0 miles WSW 5.8 mph - N/A   Scattered Clouds
10:53 PM 30.0°F 24.1°F 79% 30.11 in 10.0 miles SW 4.6 mph - N/A   Scattered Clouds
11:53 PM 30.0°F 24.1°F 79% 30.11 in 10.0 miles NE 3.5 mph - N/A   Scattered Clouds
Moon Phase
Feb. 17 Feb. 17 Feb. 25 Mar. 04 Mar. 11
Sunrise:06:51 AM (PST) Moon Rise:10:14 AM (PST)2/17
Sunset:05:17 PM (PST) Moon Set:12:49 AM (PST)2/17

Copyright © 2014 The Weather Underground, Inc.